| time (UTC) | temp F | wind direction | speed knots | gust knots | rain 1hr in | rain 24hr in | rain mn in | humidity % | barometer mb |
| 20260508073253 | 66 | 222 | 7.8 | 14.8 | 0.00 | 0.00 | 0.00 | 36 | 1015.6 |
| 20260508072751 | 66 | 224 | 7.8 | 13.0 | 0.00 | 0.00 | 0.00 | 36 | 1015.5 |
| 20260508071747 | 66 | 226 | 6.1 | 12.2 | 0.00 | 0.00 | 0.00 | 36 | 1015.3 |
| 20260508071246 | 66 | 230 | 7.8 | 13.9 | 0.00 | 0.00 | 0.00 | 36 | 1015.2 |
| 20260508070744 | 66 | 234 | 7.0 | 11.3 | 0.00 | 0.00 | 0.00 | 37 | 1015.2 |
| 20260508070240 | 66 | 228 | 7.0 | 10.4 | 0.00 | 0.00 | 0.00 | 36 | 1015.1 |
| 20260508065739 | 66 | 229 | 6.1 | 12.2 | 0.00 | 0.00 | 0.00 | 36 | 1014.8 |
| 20260508065237 | 66 | 234 | 7.8 | 12.2 | 0.00 | 0.00 | 0.00 | 36 | 1014.8 |
| 20260508064735 | 67 | 229 | 6.1 | 9.6 | 0.00 | 0.00 | 0.00 | 37 | 1014.7 |
| 20260508063731 | 67 | 235 | 7.0 | 11.3 | 0.00 | 0.00 | 0.00 | 38 | 1014.5 |
| 20260508063229 | 67 | 241 | 7.8 | 13.0 | 0.00 | 0.00 | 0.00 | 38 | 1014.4 |
| 20260508062727 | 67 | 245 | 8.7 | 13.9 | 0.00 | 0.00 | 0.00 | 39 | 1014.4 |
| 20260508062225 | 68 | 250 | 6.1 | 12.2 | 0.00 | 0.00 | 0.00 | 40 | 1014.3 |
| 20260508061219 | 68 | 255 | 9.6 | 14.8 | 0.00 | 0.00 | 0.00 | 39 | 1014.3 |
| 20260508060716 | 68 | 251 | 9.6 | 14.8 | 0.00 | 0.00 | 0.00 | 39 | 1014.2 |
| 20260508055710 | 68 | 252 | 8.7 | 16.5 | 0.00 | 0.00 | 0.00 | 39 | 1014.0 |
| 20260508055208 | 68 | 262 | 7.8 | 14.8 | 0.00 | 0.00 | 0.00 | 46 | 1014.1 |
| 20260508054704 | 68 | 259 | 10.4 | 19.1 | 0.00 | 0.00 | 0.00 | 39 | 1014.0 |
| 20260508052542 | 68 | 270 | 7.8 | 16.5 | 0.00 | 0.00 | 0.00 | 39 | 1013.9 |
| 20260508052040 | 68 | 265 | 9.6 | 14.8 | 0.00 | 0.00 | 0.00 | 38 | 1013.9 |
| 20260508050219 | 68 | 258 | 11.3 | 18.2 | 0.00 | 0.00 | 0.00 | 42 | 1013.8 |
| 20260508045718 | 68 | 256 | 11.3 | 19.1 | 0.00 | 0.00 | 0.00 | 37 | 1013.8 |
| 20260508045217 | 68 | 260 | 11.3 | 19.1 | 0.00 | 0.00 | 0.00 | 39 | 1013.8 |
| 20260508044715 | 68 | 259 | 11.3 | 21.7 | 0.00 | 0.00 | 0.00 | 40 | 1013.9 |
| 20260508043709 | 67 | 261 | 11.3 | 20.0 | 0.00 | 0.00 | 0.00 | 38 | 1013.8 |
| 20260508043208 | 67 | 278 | 8.7 | 18.2 | 0.00 | 0.00 | 0.00 | 45 | 1013.8 |
| 20260508042707 | 67 | 265 | 8.7 | 16.5 | 0.00 | 0.00 | 0.00 | 41 | 1013.9 |
| 20260508042205 | 67 | 283 | 7.8 | 19.1 | 0.00 | 0.00 | 0.00 | 40 | 1013.8 |
| 20260508041705 | 67 | 288 | 6.1 | 14.8 | 0.00 | 0.00 | 0.00 | 47 | 1013.8 |
| 20260508035503 | 67 | 267 | 9.6 | 17.4 | 0.00 | 0.00 | 0.00 | 44 | 1013.8 |
| 20260508035002 | 67 | 291 | 7.8 | 15.6 | 0.00 | 0.00 | 0.00 | 41 | 1013.9 |
| 20260508034500 | 66 | 281 | 9.6 | 17.4 | 0.00 | 0.00 | 0.00 | 43 | 1013.9 |
| 20260508033958 | 66 | 269 | 11.3 | 18.2 | 0.00 | 0.00 | 0.00 | 42 | 1014.0 |
| 20260508033457 | 66 | 262 | 11.3 | 21.7 | 0.00 | 0.00 | 0.00 | 42 | 1014.0 |
| 20260508032955 | 66 | 269 | 11.3 | 20.9 | 0.00 | 0.00 | 0.00 | 41 | 1014.0 |
| 20260508032453 | 66 | 291 | 9.6 | 18.2 | 0.00 | 0.00 | 0.00 | 42 | 1014.1 |
| 20260508031951 | 65 | 285 | 8.7 | 18.2 | 0.00 | 0.00 | 0.00 | 45 | 1014.2 |
| 20260508030946 | 65 | 280 | 9.6 | 17.4 | 0.00 | 0.00 | 0.00 | 43 | 1014.2 |
| 20260508030445 | 65 | 265 | 12.2 | 21.7 | 0.00 | 0.00 | 0.00 | 43 | 1014.3 |
| 20260508025941 | 65 | 285 | 8.7 | 15.6 | 0.00 | 0.00 | 0.00 | 43 | 1014.4 |
| 20260508024935 | 64 | 270 | 11.3 | 19.1 | 0.00 | 0.00 | 0.00 | 43 | 1014.5 |
| 20260508024434 | 64 | 274 | 11.3 | 19.1 | 0.00 | 0.00 | 0.00 | 43 | 1014.6 |
| 20260508023933 | 64 | 287 | 8.7 | 16.5 | 0.00 | 0.00 | 0.00 | 43 | 1014.7 |
| 20260508023431 | 65 | 298 | 7.8 | 15.6 | 0.00 | 0.00 | 0.00 | 46 | 1014.7 |
| 20260508022930 | 64 | 271 | 11.3 | 17.4 | 0.00 | 0.00 | 0.00 | 47 | 1014.7 |
| 20260508022428 | 63 | 267 | 10.4 | 19.1 | 0.00 | 0.00 | 0.00 | 43 | 1014.7 |
| 20260508021927 | 63 | 268 | 10.4 | 17.4 | 0.00 | 0.00 | 0.00 | 45 | 1014.9 |
| 20260508020921 | 63 | 275 | 9.6 | 18.2 | 0.00 | 0.00 | 0.00 | 49 | 1014.9 |
| 20260508020419 | 63 | 279 | 9.6 | 20.0 | 0.00 | 0.00 | 0.00 | 49 | 1015.0 |
| 20260508015917 | 62 | 277 | 11.3 | 19.1 | 0.00 | 0.00 | 0.00 | 44 | 1015.1 |
| 20260508015416 | 62 | 276 | 9.6 | 17.4 | 0.00 | 0.00 | 0.00 | 49 | 1015.2 |
| 20260508014914 | 62 | 270 | 12.2 | 20.0 | 0.00 | 0.00 | 0.00 | 45 | 1015.3 |
| 20260508014413 | 62 | 269 | 11.3 | 20.0 | 0.00 | 0.00 | 0.00 | 46 | 1015.3 |
| 20260508013911 | 62 | 270 | 10.4 | 17.4 | 0.00 | 0.00 | 0.00 | 47 | 1015.4 |
| 20260508013409 | 62 | 269 | 11.3 | 18.2 | 0.00 | 0.00 | 0.00 | 46 | 1015.5 |
| 20260508012908 | 62 | 279 | 9.6 | 19.1 | 0.00 | 0.00 | 0.00 | 47 | 1015.5 |
| 20260508012406 | 62 | 281 | 9.6 | 19.1 | 0.00 | 0.00 | 0.00 | 52 | 1015.7 |
| 20260508011903 | 63 | 299 | 8.7 | 15.6 | 0.00 | 0.00 | 0.00 | 46 | 1015.7 |
| 20260508011401 | 61 | 284 | 8.7 | 15.6 | 0.00 | 0.00 | 0.00 | 48 | 1015.7 |
| 20260508010859 | 61 | 287 | 7.0 | 16.5 | 0.00 | 0.00 | 0.00 | 48 | 1015.8 |
| 20260508010357 | 60 | 278 | 10.4 | 20.0 | 0.00 | 0.00 | 0.00 | 49 | 1016.0 |
| 20260508005856 | 60 | 276 | 11.3 | 20.9 | 0.00 | 0.00 | 0.00 | 46 | 1015.9 |
| 20260508005353 | 60 | 289 | 9.6 | 20.0 | 0.00 | 0.00 | 0.00 | 49 | 1016.1 |
| 20260508004852 | 61 | 300 | 7.0 | 14.8 | 0.00 | 0.00 | 0.00 | 47 | 1016.2 |
| 20260508003846 | 60 | 296 | 9.6 | 19.1 | 0.00 | 0.00 | 0.00 | 48 | 1016.1 |
| 20260508003345 | 60 | 288 | 10.4 | 19.1 | 0.00 | 0.00 | 0.00 | 51 | 1016.2 |
| 20260508002844 | 59 | 284 | 11.3 | 20.9 | 0.00 | 0.00 | 0.00 | 50 | 1016.2 |
| 20260508002342 | 60 | 295 | 9.6 | 19.1 | 0.00 | 0.00 | 0.00 | 52 | 1016.3 |
| 20260508001839 | 61 | 307 | 9.6 | 18.2 | 0.00 | 0.00 | 0.00 | 51 | 1016.4 |
| 20260508000834 | 58 | 288 | 10.4 | 20.9 | 0.00 | 0.00 | 0.00 | 53 | 1016.4 |
| 20260508000334 | 59 | 294 | 9.6 | 18.2 | 0.00 | 0.00 | 0.00 | 55 | 1016.5 |
| 20260507235831 | 59 | 291 | 11.3 | 19.1 | 0.00 | 0.00 | 0.00 | 50 | 1016.5 |
| 20260507235328 | 60 | 306 | 12.2 | 21.7 | 0.00 | 0.00 | 0.00 | 48 | 1016.5 |
| 20260507234826 | 58 | 291 | 10.4 | 21.7 | 0.00 | 0.00 | 0.00 | 54 | 1016.5 |
| 20260507233821 | 57 | 289 | 11.3 | 20.0 | 0.00 | 0.00 | 0.00 | 52 | 1016.6 |
| 20260507233320 | 57 | 289 | 11.3 | 20.0 | 0.00 | 0.00 | 0.00 | 49 | 1016.7 |
| 20260507232817 | 57 | 293 | 9.6 | 19.1 | 0.00 | 0.00 | 0.00 | 52 | 1016.7 |
| 20260507232316 | 58 | 306 | 7.8 | 16.5 | 0.00 | 0.00 | 0.00 | 53 | 1016.6 |
| 20260507231813 | 57 | 295 | 10.4 | 20.0 | 0.00 | 0.00 | 0.00 | 53 | 1016.7 |
| 20260507231312 | 57 | 306 | 7.8 | 14.8 | 0.00 | 0.00 | 0.00 | 58 | 1016.8 |
| 20260507230811 | 56 | 292 | 9.6 | 25.2 | 0.00 | 0.00 | 0.00 | 57 | 1016.9 |
| 20260507230310 | 57 | 304 | 10.4 | 17.4 | 0.00 | 0.00 | 0.00 | 53 | 1016.9 |
| 20260507225808 | 57 | 305 | 11.3 | 19.1 | 0.00 | 0.00 | 0.00 | 53 | 1016.7 |
| 20260507224258 | 56 | 308 | 11.3 | 20.9 | 0.00 | 0.00 | 0.00 | 54 | 1016.9 |
| 20260507223757 | 56 | 310 | 10.4 | 18.2 | 0.00 | 0.00 | 0.00 | 53 | 1017.0 |
| 20260507223256 | 56 | 309 | 10.4 | 19.1 | 0.00 | 0.00 | 0.00 | 59 | 1016.9 |
| 20260507222252 | 54 | 302 | 11.3 | 20.0 | 0.00 | 0.00 | 0.00 | 55 | 1016.9 |
| 20260507221749 | 55 | 307 | 11.3 | 17.4 | 0.00 | 0.00 | 0.00 | 57 | 1016.9 |
| 20260507221248 | 55 | 309 | 11.3 | 18.2 | 0.00 | 0.00 | 0.00 | 58 | 1016.9 |
| 20260507220747 | 54 | 306 | 11.3 | 20.0 | 0.00 | 0.00 | 0.00 | 56 | 1016.8 |
| 20260507220246 | 54 | 300 | 10.4 | 19.1 | 0.00 | 0.00 | 0.00 | 54 | 1016.8 |
| 20260507215743 | 54 | 304 | 10.4 | 19.1 | 0.00 | 0.00 | 0.00 | 54 | 1016.7 |
| 20260507215241 | 53 | 301 | 13.0 | 20.0 | 0.00 | 0.00 | 0.00 | 54 | 1016.7 |
| 20260507214738 | 53 | 310 | 11.3 | 20.0 | 0.00 | 0.00 | 0.00 | 57 | 1016.7 |
| 20260507213231 | 53 | 313 | 12.2 | 18.2 | 0.00 | 0.00 | 0.00 | 58 | 1016.7 |
| 20260507212728 | 53 | 307 | 11.3 | 18.2 | 0.00 | 0.00 | 0.00 | 60 | 1016.6 |
| 20260507212226 | 53 | 305 | 11.3 | 19.1 | 0.00 | 0.00 | 0.00 | 58 | 1016.5 |
| 20260507211222 | 53 | 309 | 10.4 | 17.4 | 0.00 | 0.00 | 0.00 | 61 | 1016.7 |
| 20260507210720 | 52 | 309 | 10.4 | 19.1 | 0.00 | 0.00 | 0.00 | 63 | 1016.7 |
| 20260507210219 | 52 | 304 | 10.4 | 18.2 | 0.00 | 0.00 | 0.00 | 60 | 1016.8 |
| 20260507205718 | 52 | 301 | 9.6 | 18.2 | 0.00 | 0.00 | 0.00 | 58 | 1016.8 |
| 20260507205215 | 52 | 306 | 9.6 | 20.0 | 0.00 | 0.00 | 0.00 | 60 | 1016.7 |
| 20260507204712 | 52 | 304 | 9.6 | 20.9 | 0.00 | 0.00 | 0.00 | 62 | 1016.6 |
| 20260507204211 | 52 | 297 | 9.6 | 16.5 | 0.00 | 0.00 | 0.00 | 60 | 1016.7 |
| 20260507203206 | 52 | 304 | 9.6 | 18.2 | 0.00 | 0.00 | 0.00 | 63 | 1016.7 |
| 20260507202705 | 52 | 307 | 9.6 | 17.4 | 0.00 | 0.00 | 0.00 | 56 | 1016.7 |
| 20260507202203 | 52 | 305 | 9.6 | 19.1 | 0.00 | 0.00 | 0.00 | 58 | 1016.6 |
| 20260507201700 | 52 | 300 | 9.6 | 17.4 | 0.00 | 0.00 | 0.00 | 61 | 1016.6 |
| 20260507201158 | 52 | 303 | 11.3 | 19.1 | 0.00 | 0.00 | 0.00 | 58 | 1016.5 |
| 20260507200657 | 52 | 307 | 10.4 | 18.2 | 0.00 | 0.00 | 0.00 | 62 | 1016.5 |
| 20260507200154 | 52 | 309 | 8.7 | 18.2 | 0.00 | 0.00 | 0.00 | 59 | 1016.5 |
| 20260507195653 | 52 | 306 | 9.6 | 15.6 | 0.00 | 0.00 | 0.00 | 61 | 1016.5 |
| 20260507194649 | 52 | 308 | 9.6 | 17.4 | 0.00 | 0.00 | 0.00 | 59 | 1016.3 |
| 20260507194148 | 53 | 305 | 9.6 | 16.5 | 0.00 | 0.00 | 0.00 | 60 | 1016.2 |
| 20260507193646 | 53 | 279 | 10.4 | 20.9 | 0.00 | 0.00 | 0.00 | 55 | 1016.1 |
| 20260507193145 | 53 | 286 | 10.4 | 19.1 | 0.00 | 0.00 | 0.00 | 58 | 1016.2 |
| 20260507192644 | 53 | 283 | 9.6 | 19.1 | 0.00 | 0.00 | 0.00 | 61 | 1016.1 |
| 20260507192143 | 53 | 298 | 8.7 | 18.2 | 0.00 | 0.00 | 0.00 | 63 | 1016.1 |
| 20260507191137 | 53 | 272 | 12.2 | 24.3 | 0.00 | 0.00 | 0.00 | 64 | 1016.2 |
| 20260507190634 | 53 | 266 | 13.0 | 21.7 | 0.00 | 0.00 | 0.00 | 58 | 1016.2 |
| 20260507190133 | 52 | 260 | 13.9 | 22.6 | 0.00 | 0.00 | 0.00 | 59 | 1016.1 |
| 20260507185631 | 53 | 265 | 14.8 | 25.2 | 0.00 | 0.00 | 0.00 | 53 | 1016.0 |
| 20260507184626 | 52 | 259 | 14.8 | 24.3 | 0.00 | 0.00 | 0.00 | 57 | 1016.1 |
| 20260507184123 | 52 | 260 | 14.8 | 25.2 | 0.00 | 0.00 | 0.00 | 55 | 1016.1 |
| 20260507183621 | 52 | 262 | 13.0 | 25.2 | 0.00 | 0.00 | 0.00 | 54 | 1016.0 |
| 20260507183120 | 52 | 263 | 12.2 | 20.9 | 0.00 | 0.00 | 0.00 | 56 | 1016.0 |
| 20260507182619 | 52 | 263 | 13.9 | 22.6 | 0.00 | 0.00 | 0.00 | 54 | 1016.0 |
| 20260507182116 | 53 | 266 | 13.0 | 23.5 | 0.00 | 0.00 | 0.00 | 51 | 1016.1 |
| 20260507181111 | 52 | 264 | 15.6 | 26.1 | 0.00 | 0.00 | 0.00 | 52 | 1016.0 |
| 20260507180610 | 52 | 264 | 15.6 | 24.3 | 0.00 | 0.00 | 0.00 | 49 | 1016.0 |
| 20260507180108 | 53 | 271 | 13.0 | 22.6 | 0.00 | 0.00 | 0.00 | 60 | 1016.2 |
| 20260507174600 | 52 | 260 | 13.9 | 25.2 | 0.00 | 0.00 | 0.00 | 59 | 1016.1 |
| 20260507173556 | 53 | 258 | 12.2 | 22.6 | 0.00 | 0.00 | 0.00 | 60 | 1016.2 |
| 20260507172552 | 53 | 260 | 12.2 | 21.7 | 0.00 | 0.00 | 0.00 | 56 | 1016.3 |
| 20260507171547 | 53 | 261 | 13.9 | 22.6 | 0.00 | 0.00 | 0.00 | 52 | 1016.2 |
| 20260507171045 | 53 | 266 | 12.2 | 20.0 | 0.00 | 0.00 | 0.00 | 56 | 1016.3 |
| 20260507170544 | 53 | 260 | 13.9 | 24.3 | 0.00 | 0.00 | 0.00 | 49 | 1016.3 |
| 20260507170043 | 53 | 271 | 13.0 | 25.2 | 0.00 | 0.00 | 0.00 | 50 | 1016.4 |
| 20260507165540 | 53 | 268 | 11.3 | 20.0 | 0.00 | 0.00 | 0.00 | 54 | 1016.6 |
| 20260507165039 | 53 | 264 | 12.2 | 19.1 | 0.00 | 0.00 | 0.00 | 49 | 1016.5 |
| 20260507164538 | 53 | 260 | 14.8 | 23.5 | 0.00 | 0.00 | 0.00 | 52 | 1016.6 |
| 20260507164037 | 53 | 260 | 13.9 | 24.3 | 0.00 | 0.00 | 0.00 | 50 | 1016.5 |
| 20260507163031 | 53 | 261 | 15.6 | 26.9 | 0.00 | 0.00 | 0.00 | 49 | 1016.4 |
| 20260507162530 | 53 | 257 | 13.0 | 24.3 | 0.00 | 0.00 | 0.00 | 56 | 1016.7 |
| 20260507162029 | 53 | 258 | 14.8 | 28.7 | 0.00 | 0.00 | 0.00 | 52 | 1016.6 |
| 20260507161528 | 53 | 260 | 14.8 | 26.1 | 0.00 | 0.00 | 0.00 | 55 | 1016.7 |
| 20260507160020 | 53 | 259 | 15.6 | 25.2 | 0.00 | 0.00 | 0.00 | 50 | 1016.8 |
| 20260507155016 | 53 | 261 | 13.0 | 23.5 | 0.00 | 0.00 | 0.00 | 51 | 1016.9 |
| 20260507154514 | 53 | 256 | 11.3 | 20.0 | 0.00 | 0.00 | 0.00 | 56 | 1016.9 |
| 20260507154011 | 53 | 258 | 13.0 | 22.6 | 0.00 | 0.00 | 0.00 | 54 | 1016.9 |
| 20260507153510 | 53 | 259 | 13.0 | 24.3 | 0.00 | 0.00 | 0.00 | 53 | 1016.9 |
| 20260507152505 | 53 | 255 | 10.4 | 22.6 | 0.00 | 0.00 | 0.00 | 59 | 1017.0 |
| 20260507151459 | 53 | 263 | 13.9 | 23.5 | 0.00 | 0.00 | 0.00 | 47 | 1017.1 |
| 20260507150958 | 53 | 261 | 13.9 | 26.1 | 0.00 | 0.00 | 0.00 | 46 | 1017.1 |
| 20260507150456 | 53 | 258 | 15.6 | 26.1 | 0.00 | 0.00 | 0.00 | 48 | 1017.1 |
| 20260507145954 | 53 | 256 | 14.8 | 25.2 | 0.00 | 0.00 | 0.00 | 49 | 1017.1 |
| 20260507145453 | 53 | 259 | 12.2 | 23.5 | 0.00 | 0.00 | 0.00 | 51 | 1017.1 |
| 20260507144952 | 53 | 258 | 16.5 | 26.1 | 0.00 | 0.00 | 0.00 | 50 | 1017.0 |
| 20260507143948 | 53 | 258 | 17.4 | 26.9 | 0.00 | 0.00 | 0.00 | 51 | 1017.1 |
| 20260507143447 | 53 | 256 | 16.5 | 25.2 | 0.00 | 0.00 | 0.00 | 50 | 1017.1 |
| 20260507142944 | 53 | 259 | 16.5 | 26.9 | 0.00 | 0.00 | 0.00 | 46 | 1017.1 |
| 20260507141939 | 54 | 261 | 14.8 | 24.3 | 0.00 | 0.00 | 0.00 | 50 | 1017.1 |
| 20260507141438 | 54 | 262 | 12.2 | 24.3 | 0.00 | 0.00 | 0.00 | 48 | 1017.0 |
| 20260507140937 | 54 | 259 | 14.8 | 24.3 | 0.00 | 0.00 | 0.00 | 50 | 1017.0 |
| 20260507140436 | 53 | 260 | 13.9 | 21.7 | 0.00 | 0.00 | 0.00 | 52 | 1017.0 |
| 20260507135934 | 54 | 246 | 8.7 | 18.2 | 0.00 | 0.00 | 0.00 | 57 | 1017.0 |
| 20260507135431 | 53 | 248 | 13.0 | 23.5 | 0.00 | 0.00 | 0.00 | 54 | 1017.1 |
| 20260507134930 | 53 | 249 | 13.0 | 25.2 | 0.00 | 0.00 | 0.00 | 48 | 1017.0 |
| 20260507134428 | 54 | 249 | 14.8 | 23.5 | 0.00 | 0.00 | 0.00 | 52 | 1017.0 |
| 20260507133926 | 54 | 255 | 13.0 | 20.9 | 0.00 | 0.00 | 0.00 | 47 | 1017.0 |
| 20260507132922 | 54 | 262 | 12.2 | 23.5 | 0.00 | 0.00 | 0.00 | 54 | 1017.0 |
| 20260507132419 | 54 | 261 | 13.0 | 20.9 | 0.00 | 0.00 | 0.00 | 51 | 1017.0 |
| 20260507131918 | 54 | 255 | 12.2 | 24.3 | 0.00 | 0.00 | 0.00 | 50 | 1017.0 |
| 20260507131417 | 54 | 252 | 13.0 | 21.7 | 0.00 | 0.00 | 0.00 | 48 | 1017.0 |
| 20260507130914 | 54 | 247 | 14.8 | 22.6 | 0.00 | 0.00 | 0.00 | 46 | 1016.9 |
| 20260507130412 | 54 | 248 | 14.8 | 23.5 | 0.00 | 0.00 | 0.00 | 48 | 1016.8 |
| 20260507125910 | 54 | 250 | 14.8 | 26.9 | 0.00 | 0.00 | 0.00 | 44 | 1016.7 |
| 20260507125408 | 54 | 246 | 14.8 | 25.2 | 0.00 | 0.00 | 0.00 | 54 | 1016.9 |
| 20260507124907 | 54 | 248 | 16.5 | 25.2 | 0.00 | 0.00 | 0.00 | 42 | 1016.8 |
| 20260507124406 | 54 | 252 | 14.8 | 26.1 | 0.00 | 0.00 | 0.00 | 44 | 1016.7 |
| 20260507123905 | 55 | 252 | 13.0 | 24.3 | 0.00 | 0.00 | 0.00 | 45 | 1016.7 |
| 20260507123403 | 55 | 252 | 12.2 | 25.2 | 0.00 | 0.00 | 0.00 | 48 | 1016.8 |
| 20260507122902 | 55 | 246 | 13.9 | 24.3 | 0.00 | 0.00 | 0.00 | 46 | 1016.8 |
| 20260507122401 | 55 | 246 | 14.8 | 25.2 | 0.00 | 0.00 | 0.00 | 42 | 1016.8 |
| 20260507121858 | 55 | 247 | 17.4 | 27.8 | 0.00 | 0.00 | 0.00 | 42 | 1016.9 |
| 20260507121356 | 55 | 246 | 16.5 | 30.4 | 0.00 | 0.00 | 0.00 | 43 | 1016.9 |
| 20260507120853 | 55 | 246 | 16.5 | 26.1 | 0.00 | 0.00 | 0.00 | 47 | 1016.9 |
| 20260507115849 | 55 | 248 | 15.6 | 29.5 | 0.00 | 0.00 | 0.00 | 44 | 1016.9 |
| 20260507115348 | 55 | 247 | 18.2 | 33.9 | 0.00 | 0.00 | 0.00 | 41 | 1016.8 |
| 20260507114846 | 55 | 246 | 14.8 | 26.1 | 0.00 | 0.00 | 0.00 | 44 | 1016.8 |
| 20260507114345 | 55 | 248 | 18.2 | 31.3 | 0.00 | 0.00 | 0.00 | 44 | 1016.7 |
| 20260507113843 | 56 | 251 | 19.1 | 31.3 | 0.00 | 0.00 | 0.00 | 47 | 1016.7 |
| 20260507113341 | 56 | 251 | 15.6 | 27.8 | 0.00 | 0.00 | 0.00 | 50 | 1016.7 |
| 20260507112840 | 55 | 250 | 17.4 | 29.5 | 0.00 | 0.00 | 0.00 | 41 | 1016.6 |
| 20260507112337 | 55 | 248 | 17.4 | 28.7 | 0.00 | 0.00 | 0.00 | 42 | 1016.6 |
| 20260507111332 | 55 | 251 | 16.5 | 24.3 | 0.00 | 0.00 | 0.00 | 41 | 1016.5 |
| 20260507110831 | 56 | 256 | 16.5 | 26.1 | 0.00 | 0.00 | 0.00 | 42 | 1016.6 |
| 20260507105322 | 56 | 251 | 16.5 | 27.8 | 0.00 | 0.00 | 0.00 | 40 | 1016.6 |
| 20260507104318 | 56 | 245 | 14.8 | 26.9 | 0.00 | 0.00 | 0.00 | 41 | 1016.6 |
| 20260507103815 | 56 | 251 | 17.4 | 30.4 | 0.00 | 0.00 | 0.00 | 39 | 1016.6 |
| 20260507103313 | 56 | 248 | 15.6 | 26.9 | 0.00 | 0.00 | 0.00 | 41 | 1016.6 |
| 20260507101804 | 56 | 248 | 13.9 | 24.3 | 0.00 | 0.00 | 0.00 | 40 | 1016.3 |
| 20260507101301 | 56 | 249 | 16.5 | 30.4 | 0.00 | 0.00 | 0.00 | 40 | 1016.3 |
| 20260507100759 | 56 | 247 | 15.6 | 25.2 | 0.00 | 0.00 | 0.00 | 39 | 1016.2 |
| 20260507100257 | 56 | 245 | 13.0 | 21.7 | 0.00 | 0.00 | 0.00 | 41 | 1016.2 |
| 20260507095251 | 57 | 248 | 16.5 | 33.0 | 0.00 | 0.00 | 0.00 | 37 | 1016.2 |
| 20260507094750 | 57 | 248 | 17.4 | 29.5 | 0.00 | 0.00 | 0.00 | 39 | 1016.0 |
| 20260507093744 | 57 | 247 | 15.6 | 28.7 | 0.00 | 0.00 | 0.00 | 37 | 1015.8 |
| 20260507093242 | 57 | 247 | 15.6 | 27.8 | 0.00 | 0.00 | 0.00 | 39 | 1015.9 |
| 20260507092741 | 57 | 248 | 17.4 | 30.4 | 0.00 | 0.00 | 0.00 | 38 | 1015.7 |
| 20260507092239 | 57 | 247 | 15.6 | 26.9 | 0.00 | 0.00 | 0.00 | 43 | 1015.6 |
| 20260507091737 | 57 | 249 | 14.8 | 28.7 | 0.00 | 0.00 | 0.00 | 44 | 1015.5 |
| 20260507091236 | 57 | 248 | 16.5 | 27.8 | 0.00 | 0.00 | 0.00 | 38 | 1015.5 |
| 20260507090733 | 57 | 249 | 14.8 | 26.9 | 0.00 | 0.00 | 0.00 | 35 | 1015.6 |
| 20260507090231 | 58 | 246 | 13.9 | 25.2 | 0.00 | 0.00 | 0.00 | 37 | 1015.4 |
| 20260507085730 | 58 | 250 | 15.6 | 27.8 | 0.00 | 0.00 | 0.00 | 37 | 1015.3 |
| 20260507085227 | 58 | 246 | 13.0 | 21.7 | 0.00 | 0.00 | 0.00 | 37 | 1015.5 |
| 20260507084223 | 58 | 246 | 13.9 | 24.3 | 0.00 | 0.00 | 0.00 | 35 | 1015.1 |
| 20260507083721 | 58 | 244 | 13.0 | 24.3 | 0.00 | 0.00 | 0.00 | 38 | 1015.2 |
| 20260507083219 | 58 | 239 | 13.0 | 23.5 | 0.00 | 0.00 | 0.00 | 35 | 1015.0 |
| 20260507081709 | 58 | 236 | 13.0 | 22.6 | 0.00 | 0.00 | 0.00 | 32 | 1014.6 |
| 20260507081208 | 59 | 245 | 13.0 | 20.9 | 0.00 | 0.00 | 0.00 | 34 | 1014.6 |
| 20260507080707 | 59 | 244 | 13.9 | 27.8 | 0.00 | 0.00 | 0.00 | 33 | 1014.4 |
| 20260507080206 | 59 | 244 | 13.9 | 26.1 | 0.00 | 0.00 | 0.00 | 35 | 1014.2 |
| 20260507075704 | 59 | 246 | 14.8 | 27.8 | 0.00 | 0.00 | 0.00 | 31 | 1014.2 |
| 20260507075203 | 59 | 249 | 14.8 | 22.6 | 0.00 | 0.00 | 0.00 | 32 | 1014.2 |
| 20260507074702 | 59 | 243 | 11.3 | 23.5 | 0.00 | 0.00 | 0.00 | 31 | 1014.0 |
| 20260507074200 | 59 | 242 | 10.4 | 19.1 | 0.00 | 0.00 | 0.00 | 30 | 1014.0 |